Plattsburgh, NY

8:29 AM EST on December 15, 2019 (GMT -0500)
Plattsburgh International

Weather History for KPBG - October, 2019

Change the Weather History Date:

Friday, October 11, 2019

  Actual Average Record
Temperature  
Mean Temperature 54 °F 49 °F  
Max Temperature 69 °F 59 °F 85 °F (1949)
Min Temperature 39 °F 39 °F 21 °F (1986)
Degree Days  
Heating Degree Days 11 16  
Month to date heating degree days 152 156  
Since 1 July heating degree days 344 391  
Cooling Degree Days 0 0  
Month to date cooling degree days 0 0  
Year to date cooling degree days 406 345  
Growing Degree Days 4 (Base 50)    
Moisture  
Dew Point 39 °F    
Average Humidity 65    
Maximum Humidity 93    
Minimum Humidity 28    
Precipitation  
Precipitation 0.00 in - 0.48 in (2018)
Month to date precipitation 1.38 0.00  
Year to date precipitation 23.00  
Sea Level Pressure  
Sea Level Pressure 30.26 in    
Wind  
Wind Speed 2 mph ()    
Max Wind Speed 12 mph    
Max Gust Speed 15 mph    
Visibility 10.0 miles    
Events      
T = Trace of Precipitation, MM = Missing Value Source: Averaged Metar Reports

Daily Weather History Graph

Daily Weather History Graph

Search for Another Location

Airport or City:

Astronomy

Oct. 11, 2019 Rise Set
Actual Time 7:03 AM EDT 6:16 PM EDT
Civil Twilight 6:34 AM EDT 6:45 PM EDT
Nautical Twilight 6:00 AM EDT 7:19 PM EDT
Astronomical Twilight 5:26 AM EDT 7:53 PM EDT
Moon 5:52 PM EDT (10/11) 4:32 AM EDT (10/11)
Length of Visible Light 12h 11m
Length of Day
11h 12m
Waxing Gibbous, 96% of the Moon is Illuminated
Oct 11
Waxing Gibbous
Oct 13
Full
Oct 21
Last Quarter
Oct 27
New
Nov 4
First Quarter

Hourly Weather History & Observations

Time (EDT) Temp. Dew Point Humidity Pressure Visibility Wind Dir Wind Speed Gust Speed Precip Events Conditions
12:53 AM 45.0 °F 41.0 °F 86% 30.33 in 10.0 mi Calm Calm - N/A   Clear
1:53 AM 43.0 °F 39.0 °F 86% 30.32 in 10.0 mi Calm Calm - N/A   Clear
2:53 AM 42.1 °F 37.9 °F 85% 30.32 in 10.0 mi Calm Calm - N/A   Clear
3:53 AM 42.1 °F 39.0 °F 89% 30.32 in 10.0 mi Calm Calm - N/A   Clear
4:53 AM 41.0 °F 37.9 °F 89% 30.32 in 10.0 mi Calm Calm - N/A   Clear
5:53 AM 41.0 °F 37.9 °F 89% 30.32 in 10.0 mi Calm Calm - N/A   Clear
6:53 AM 39.0 °F 37.0 °F 93% 30.34 in 10.0 mi Calm Calm - N/A   Clear
7:53 AM 39.9 °F 37.0 °F 89% 30.33 in 10.0 mi Calm Calm - N/A   Clear
8:53 AM 46.9 °F 37.9 °F 71% 30.35 in 10.0 mi Calm Calm - N/A   Clear
9:53 AM 52.0 °F 39.0 °F 61% 30.34 in 10.0 mi North 5.8 mph - N/A   Clear
10:53 AM 57.0 °F 37.9 °F 49% 30.32 in 10.0 mi Variable 4.6 mph - N/A   Clear
11:53 AM 60.1 °F 39.0 °F 46% 30.30 in 10.0 mi NNE 5.8 mph - N/A   Clear
12:53 PM 63.0 °F 37.0 °F 38% 30.28 in 10.0 mi NE 6.9 mph - N/A   Clear
1:53 PM 66.0 °F 36.0 °F 33% 30.25 in 10.0 mi NNE 9.2 mph - N/A   Clear
2:53 PM 68.0 °F 34.0 °F 28% 30.23 in 10.0 mi North 10.4 mph - N/A   Clear
3:53 PM 68.0 °F 34.0 °F 28% 30.22 in 10.0 mi NNE 6.9 mph - N/A   Clear
4:53 PM 68.0 °F 36.0 °F 31% 30.20 in 10.0 mi North 9.2 mph - N/A   Clear
5:53 PM 64.9 °F 37.0 °F 36% 30.18 in 10.0 mi NNE 6.9 mph - N/A   Clear
6:53 PM 55.0 °F 44.1 °F 67% 30.17 in 10.0 mi Calm Calm - N/A   Clear
7:53 PM 52.0 °F 43.0 °F 71% 30.17 in 10.0 mi Calm Calm - N/A   Overcast
8:53 PM 54.0 °F 45.0 °F 72% 30.16 in 10.0 mi NNW 4.6 mph - N/A   Overcast
9:53 PM 54.0 °F 42.1 °F 64% 30.14 in 10.0 mi West 3.5 mph - N/A   Overcast
10:53 PM 51.1 °F 43.0 °F 74% 30.12 in 10.0 mi Calm Calm - N/A   Partly Cloudy
11:53 PM 48.0 °F 42.1 °F 80% 30.10 in 10.0 mi Calm Calm - N/A   Clear